DW3795 Weather Reports


Display with metric or nautical units.
time (UTC)temp
F
wind
direction
speed
MPH
gust
MPH
rain 1hr
in
rain 24hr
in
rain mn
in
humidity
%
barometer
mb
20260902010017 82 308 0.0 0.0 0.00 0.00 0.00 78 1015.4
20260902004513 82 308 0.0 0.0 0.00 0.00 0.00 77 1015.1
20260902003012 83 308 0.0 0.0 0.00 0.00 0.00 74 1015.1
20260902001512 84 308 0.0 0.0 0.00 0.00 0.00 72 1015.1
20260902000012 85 308 0.0 0.0 0.00 0.00 0.00 70 1015.3
20260901234527 87 308 0.0 1.0 0.00 0.00 0.00 69 1015.2
20260901233012 88 308 0.0 1.0 0.00 0.00 0.00 67 1015.1
20260901231510 89 308 0.0 1.0 0.00 0.00 0.00 64 1015.2
20260901230012 91 308 0.0 1.0 0.00 0.00 0.00 61 1015.4
20260901224507 92 308 0.0 1.0 0.00 0.00 0.00 58 1015.6
20260901223010 93 308 0.0 2.0 0.00 0.00 0.00 54 1015.5
20260901221521 94 327 0.0 3.0 0.00 0.00 0.00 51 1015.5
20260901220012 96 332 0.0 3.0 0.00 0.00 0.00 49 1015.4
20260901214505 98 345 0.0 3.0 0.00 0.00 0.00 49 1015.4
20260901213003 99 298 0.0 2.0 0.00 0.00 0.00 47 1015.5
20260901211502 99 296 0.0 2.0 0.00 0.00 0.00 45 1015.5
20260901210004 100 198 0.0 4.0 0.00 0.00 0.00 44 1015.4
20260901204600 100 339 1.0 4.0 0.00 0.00 0.00 44 1015.7
20260901203104 100 306 1.0 6.0 0.00 0.00 0.00 44 1015.8
20260901201557 100 344 1.0 3.0 0.00 0.00 0.00 43 1015.9
20260901200055 100 278 1.0 4.0 0.00 0.00 0.00 44 1015.8
20260901194553 100 224 0.0 4.0 0.00 0.00 0.00 43 1016.1
20260901193102 100 28 0.0 0.0 0.00 0.00 0.00 46 1016.2
20260901191549 99 356 2.0 4.0 0.00 0.00 0.00 46 1016.4
20260901190046 99 265 3.0 6.0 0.00 0.00 0.00 44 1016.5
20260901184546 99 313 1.0 4.0 0.00 0.00 0.00 47 1016.6
20260901183041 98 217 0.0 3.0 0.00 0.00 0.00 46 1016.6
20260901181541 98 283 2.0 6.0 0.00 0.00 0.00 49 1016.7
20260901180038 98 351 1.0 4.0 0.00 0.00 0.00 49 1016.9
20260901174534 97 260 2.0 5.0 0.00 0.00 0.00 50 1017.0
20260901173132 97 262 1.0 6.0 0.00 0.00 0.00 51 1017.0
20260901171529 97 217 1.0 5.0 0.00 0.00 0.00 53 1017.1
20260901170026 97 349 2.0 5.0 0.00 0.00 0.00 54 1017.2
20260901164524 96 270 1.0 5.0 0.00 0.00 0.00 54 1017.4
20260901163020 95 10 3.0 8.0 0.00 0.00 0.00 56 1017.6
20260901161532 95 10 1.0 3.0 0.00 0.00 0.00 60 1017.7
20260901160025 93 359 1.0 4.0 0.00 0.00 0.00 62 1018.0
20260901154508 92 253 0.0 0.0 0.00 0.00 0.00 61 1018.3
20260901153004 92 198 2.0 6.0 0.00 0.00 0.00 62 1018.4
20260901151559 90 275 0.0 3.0 0.00 0.00 0.00 66 1018.5
20260901150058 89 205 0.0 5.0 0.00 0.00 0.00 69 1018.7
20260901144551 87 283 0.0 0.0 0.00 0.00 0.00 74 1018.8
20260901143046 85 327 0.0 0.0 0.00 0.00 0.00 78 1018.9
20260901141542 82 328 0.0 0.0 0.00 0.00 0.00 82 1018.8
20260901140038 80 32 0.0 0.0 0.00 0.00 0.00 88 1018.7
20260901134551 77 339 0.0 0.0 0.00 0.00 0.00 93 1018.8
20260901133031 76 337 0.0 0.0 0.00 0.00 0.00 95 1018.8
20260901131524 74 322 0.0 0.0 0.00 0.00 0.00 96 1018.8
20260901130021 73 327 0.0 0.0 0.00 0.00 0.00 96 1018.8
20260901124525 72 316 0.0 0.0 0.00 0.00 0.00 96 1018.8
20260901123019 72 311 0.0 0.0 0.00 0.00 0.00 96 1018.8
20260901121617 71 313 0.0 0.0 0.00 0.00 0.00 96 1018.8
20260901120016 70 313 0.0 0.0 0.00 0.00 0.00 95 1018.7
20260901114512 70 313 0.0 0.0 0.00 0.00 0.00 95 1018.4
20260901113016 69 313 0.0 0.0 0.00 0.00 0.00 95 1018.3
20260901111509 69 313 0.0 0.0 0.00 0.00 0.00 95 1018.1
20260901110008 69 313 0.0 0.0 0.00 0.00 0.00 95 1018.1
20260901104506 69 313 0.0 0.0 0.00 0.00 0.00 94 1017.9
20260901103005 70 313 0.0 0.0 0.00 0.00 0.00 94 1017.8
20260901101504 70 313 0.0 0.0 0.00 0.00 0.00 94 1017.7
20260901100006 70 313 0.0 0.0 0.00 0.00 0.00 94 1017.8
20260901094502 70 313 0.0 0.0 0.00 0.00 0.00 94 1017.8
20260901093059 71 312 0.0 0.0 0.00 0.00 0.00 94 1017.9
20260901091559 71 312 0.0 0.0 0.00 0.00 0.00 94 1018.0
20260901084600 71 312 0.0 0.0 0.00 0.00 0.00 94 1017.8
20260901083056 71 312 0.0 1.0 0.00 0.00 0.00 94 1017.7
20260901081602 71 312 0.0 0.0 0.00 0.00 0.00 94 1017.8
20260901080054 71 312 0.0 0.0 0.00 0.00 0.00 94 1017.8
20260901074554 71 312 0.0 0.0 0.00 0.00 0.00 93 1017.8
20260901073059 72 312 0.0 0.0 0.00 0.00 0.00 93 1017.6
20260901071548 72 312 0.0 0.0 0.00 0.00 0.00 93 1017.6
20260901070057 72 312 0.0 0.0 0.00 0.00 0.00 93 1017.9
20260901064545 72 312 0.0 0.0 0.00 0.00 0.00 93 1017.9
20260901063046 73 312 0.0 1.0 0.00 0.00 0.00 93 1018.1
20260901061541 73 312 0.0 0.0 0.00 0.00 0.00 92 1018.2
20260901060041 73 312 0.0 0.0 0.00 0.00 0.00 92 1018.2
20260901054538 73 312 0.0 0.0 0.00 0.00 0.00 92 1018.2
20260901053100 74 312 0.0 0.0 0.00 0.00 0.00 91 1018.3
20260901051534 74 312 0.0 0.0 0.00 0.00 0.00 91 1018.3
20260901050033 74 312 0.0 0.0 0.00 0.00 0.00 91 1018.3
20260901044541 74 312 0.0 0.0 0.00 0.00 0.00 91 1018.4
20260901043035 75 312 0.0 0.0 0.00 0.00 0.00 90 1018.4
20260901041524 75 312 0.0 0.0 0.00 0.00 0.00 90 1018.2
20260901040023 75 312 0.0 0.0 0.00 0.00 0.00 90 1018.4
20260901034522 75 312 0.0 0.0 0.00 0.00 0.00 89 1018.4
20260901033027 76 312 0.0 0.0 0.00 0.00 0.00 89 1018.3
20260901031520 76 312 0.0 0.0 0.00 0.00 0.00 88 1018.3
20260901030021 76 312 0.0 0.0 0.00 0.00 0.00 87 1018.2
20260901024522 77 312 0.0 0.0 0.00 0.00 0.00 87 1018.3
20260901023119 78 312 0.0 0.0 0.00 0.00 0.00 86 1018.1
20260901021525 78 312 0.0 0.0 0.00 0.00 0.00 84 1018.1
20260901020040 79 312 0.0 0.0 0.00 0.00 0.00 83 1017.9
20260901014518 80 312 0.0 0.0 0.00 0.00 0.00 82 1018.0
20260901013017 80 312 0.0 0.0 0.00 0.00 0.00 81 1018.0
20260901011524 81 312 0.0 0.0 0.00 0.00 0.00 80 1017.9